RH
98 94 92 92 90 85 83 84 84 80 79 81 86 89 92 101 93 90 94 76 55 54 72 86 91 101 108 92 73 70 70 73 76 72 69 68 70 71 69 73 80 81 80 80 79 77 74 73 70 67 69 79 89 95 97 100 101 90 78 71 66 64 62 61 57 54 55 55 53 46 45 48 45 47 48 46 59 75 79 82 82 68 57 50 39 32 25 21 17 16 16 16 18 19 21 20 20
100 97 95 97 97 93 91 90 88 87 90 89 95 102 104 105 84 74 86 78 60 57 73 91 101 107 100 83 76 77 74 73 72 70 71 69 69 66 68 81 88 85 83 86 85 81 82 79 73 72 76 87 97 100 99 102 99 86 74 70 68 63 62 61 57 56 57 56 51 46 47 49 44 40 37 39 67 88 86 77 62 48 40 35 30 25 21 18 16 16 16 18 19 20 22 21 20
100 99 98 98 98 97 97 98 100 101 102 102 105 108 105 95 77 75 89 86 70 64 76 94 106 109 96 80 79 85 83 76 70 70 71 71 70 70 78 89 90 88 87 89 87 83 89 85 77 75 77 91 104 100 96 97 90 79 70 68 66 62 63 61 58 58 58 56 51 48 48 48 44 41 36 44 82 100 92 74 53 45 38 32 30 22 19 16 15 16 16 19 20 21 22 22 21
100 101 100 99 99 98 97 98 104 105 105 107 107 107 99 86 81 88 96 89 78 77 89 100 104 108 99 84 87 91 83 74 73 74 74 72 73 79 86 89 89 86 83 81 80 85 94 90 82 80 83 96 102 96 89 84 78 75 71 65 62 61 63 60 57 56 56 55 50 49 49 49 44 40 38 45 84 105 94 75 56 51 44 37 33 26 23 19 18 17 17 19 20 22 21 22 21
99 100 100 101 101 99 99 100 105 105 105 107 105 103 92 84 88 95 101 96 86 90 104 107 99 100 99 93 95 92 81 76 78 81 81 79 79 85 88 86 83 78 76 77 80 90 97 92 89 91 92 95 93 90 85 78 73 71 69 62 61 62 62 58 56 56 55 53 49 51 50 49 42 39 41 40 76 106 96 79 65 59 50 45 39 33 31 28 26 22 20 20 20 22 21 22 21
98 98 99 101 101 101 101 101 102 102 103 102 101 100 88 86 95 98 104 103 97 101 107 106 94 89 93 98 98 89 84 84 85 87 87 86 85 87 85 82 78 76 79 82 88 96 98 95 96 96 91 87 85 86 82 76 71 68 65 61 62 61 59 56 56 58 54 51 50 54 52 49 42 39 41 41 75 106 95 81 74 67 56 52 47 41 40 37 35 29 23 20 19 20 20 21 20
88 91 93 96 99 100 102 102 101 101 102 100 101 99 93 96 101 104 105 103 103 102 98 94 87 82 87 98 97 87 87 90 90 92 91 90 89 85 81 78 77 78 82 88 96 97 93 92 89 85 82 81 81 83 79 75 71 69 68 64 63 60 59 58 57 56 51 51 53 56 53 48 40 39 52 65 89 103 93 82 77 73 62 57 53 47 48 46 42 35 27 20 18 18 19 19 18
74 77 81 85 90 94 98 101 102 104 103 101 102 99 97 100 101 104 102 102 106 101 93 88 85 86 89 96 96 88 88 91 91 93 95 94 88 80 76 76 78 79 83 88 91 89 85 81 78 78 82 84 83 82 77 75 76 74 71 67 64 62 63 60 55 53 52 55 56 56 50 44 37 46 74 92 100 100 93 83 78 78 69 61 57 54 54 50 46 40 29 21 17 18 18 18 18
63 66 69 71 75 80 88 95 102 105 104 103 101 98 98 98 99 102 101 106 107 97 91 87 88 92 90 91 92 89 90 93 93 95 96 93 84 76 75 78 78 78 79 81 84 84 81 77 78 82 86 84 81 79 76 79 79 75 70 68 67 67 65 58 54 54 57 58 60 57 47 41 39 61 94 100 100 100 93 83 79 84 78 65 59 59 57 51 48 41 30 23 18 17 18 18 18
51 55 59 62 64 68 76 83 90 97 101 104 101 98 99 98 98 101 103 106 101 89 85 85 87 88 86 90 94 96 97 97 96 95 95 90 82 77 79 80 79 78 78 79 82 81 78 77 77 79 78 75 78 82 82 79 74 70 68 72 73 67 60 57 58 61 64 63 65 60 48 42 43 75 104 100 100 99 93 83 76 88 88 71 63 63 58 53 50 43 37 31 24 19 18 18 18
49 49 50 54 58 63 69 72 75 80 87 96 100 101 100 99 100 101 103 102 93 84 83 85 83 80 85 93 100 101 98 98 97 94 92 87 82 81 81 80 80 81 80 81 81 79 76 76 74 72 72 73 84 89 83 71 68 73 69 71 72 63 59 62 69 73 70 64 69 64 50 45 45 77 106 102 99 95 92 83 70 83 96 79 65 65 57 53 50 46 45 38 31 25 19 20 22
56 54 53 55 59 61 66 70 70 72 77 84 87 90 91 92 95 98 102 97 83 77 82 86 82 80 86 95 98 98 96 97 95 92 89 85 84 85 85 83 82 81 81 83 81 79 76 75 74 71 72 75 81 80 73 64 69 78 70 68 67 61 62 69 83 84 71 63 66 61 50 47 45 69 102 105 96 91 92 87 74 77 94 87 69 67 59 53 52 48 45 37 32 28 24 32 38
61 61 62 63 66 69 75 80 80 81 84 81 77 77 79 82 87 95 102 93 73 72 85 87 86 89 91 96 96 93 92 92 91 90 88 86 89 89 88 85 83 83 83 85 81 78 75 73 72 70 71 71 70 69 69 65 70 77 70 68 64 61 62 70 90 89 71 62 60 55 51 50 43 54 89 105 93 88 91 89 87 82 90 94 78 70 63 57 54 50 44 34 29 29 36 47 53
61 63 66 70 75 81 90 93 92 93 93 87 81 78 77 80 82 89 96 89 74 78 92 91 93 99 97 98 96 90 88 89 89 90 88 89 91 90 89 86 85 84 82 81 77 75 75 72 73 72 70 72 73 72 72 72 76 77 70 65 60 61 63 71 93 90 73 63 57 54 53 52 45 40 68 101 93 80 84 86 94 92 91 96 88 79 72 64 57 53 45 34 30 34 42 49 53
58 61 67 73 80 89 95 96 94 93 91 87 84 80 79 80 78 82 92 92 83 84 94 95 96 99 99 96 90 85 86 89 91 91 91 91 91 90 89 87 85 83 80 77 74 76 75 73 74 72 71 81 86 79 79 82 80 74 66 62 61 64 68 80 96 87 72 64 56 55 56 54 48 38 49 88 97 79 75 84 98 98 93 94 91 87 83 72 61 59 51 37 33 37 40 42 44
49 56 65 74 82 90 92 91 88 85 85 85 83 81 80 80 79 83 92 93 87 86 90 92 92 93 93 91 86 84 86 89 90 90 90 90 90 89 88 87 84 81 80 77 75 74 74 78 81 80 82 90 89 83 86 83 73 67 64 64 64 66 71 83 88 76 70 65 57 55 56 55 50 42 41 66 93 90 79 84 98 100 96 92 87 87 87 78 67 65 61 46 35 38 39 38 39
36 47 62 75 83 86 84 81 80 81 82 84 84 84 81 79 80 86 92 90 86 88 88 88 88 89 89 87 85 85 86 87 87 87 88 89 88 89 87 85 81 79 78 76 75 72 81 92 87 83 85 91 93 90 88 81 74 71 69 68 66 67 71 75 73 69 70 64 58 56 55 56 51 44 40 45 62 75 77 83 97 99 94 92 85 81 82 78 72 69 69 60 42 39 40 39 40
26 37 54 70 76 76 74 72 75 79 80 82 83 83 80 77 81 88 92 89 88 89 89 88 86 85 86 83 83 85 85 85 86 88 90 90 89 88 86 83 79 76 76 76 78 80 89 91 80 79 83 89 94 91 90 89 87 81 74 71 66 67 71 70 67 68 69 61 60 60 56 57 52 43 41 40 40 45 51 64 89 98 90 89 87 80 76 74 74 72 73 72 54 43 43 41 43
21 28 44 58 61 62 63 65 70 73 75 78 80 81 79 78 82 87 92 91 88 87 84 85 82 79 81 79 80 84 84 83 87 89 90 90 87 85 84 81 77 80 83 83 89 91 88 82 81 89 90 89 87 85 92 97 93 85 79 73 66 67 68 68 67 66 65 62 64 63 58 58 51 43 41 38 36 34 32 45 73 92 89 83 85 84 75 71 77 75 73 81 68 51 47 44 47
18 23 37 44 43 45 49 55 63 67 70 75 77 77 78 81 83 85 93 88 81 81 77 78 77 73 76 76 74 79 84 84 87 87 87 86 81 80 80 79 78 85 92 88 88 90 86 86 92 97 95 90 83 85 91 93 93 90 82 72 66 67 67 67 67 65 63 64 70 64 58 57 50 43 41 38 38 41 47 64 81 91 95 86 83 89 80 72 82 79 70 82 79 59 52 49 54
18 22 30 30 28 31 36 43 52 57 64 70 72 74 77 81 82 84 93 84 73 76 72 71 72 69 74 76 73 76 82 83 84 84 84 82 79 79 78 78 80 83 87 85 83 87 89 89 92 94 93 85 80 86 91 94 97 91 80 72 68 68 67 66 66 66 65 68 72 64 57 55 47 41 41 39 42 62 81 93 99 98 103 101 92 95 91 80 86 87 75 80 82 68 61 58 62
20 23 25 22 20 23 26 31 38 44 51 59 65 70 74 78 80 82 86 80 74 73 67 66 69 72 76 78 76 76 76 77 78 78 79 79 78 79 80 80 80 81 85 85 85 85 85 86 87 89 89 85 82 87 95 100 98 89 81 74 69 67 65 66 67 67 67 70 70 63 58 52 46 42 41 37 38 71 101 99 99 102 101 105 105 105 103 96 99 100 88 84 82 73 71 69 71
20 23 23 20 19 19 20 22 27 31 38 46 54 62 67 72 75 75 76 75 72 68 65 66 69 72 76 77 78 78 77 77 78 78 78 78 80 81 82 82 81 87 92 87 83 80 85 91 91 93 97 95 94 96 101 101 95 88 81 74 68 66 66 67 69 68 68 70 68 64 59 52 49 45 41 38 29 52 95 104 98 100 102 103 105 106 104 103 102 98 91 89 84 74 77 77 77
20 23 22 20 19 18 18 18 20 23 27 34 43 51 57 63 66 66 68 69 66 63 64 66 67 70 72 75 78 80 79 79 80 80 79 79 81 81 81 81 81 88 89 80 77 78 85 92 89 93 98 96 97 99 99 99 97 87 75 71 69 67 67 69 70 70 70 71 71 67 61 53 50 47 39 36 27 27 61 98 105 101 105 105 101 100 101 102 101 92 86 89 87 78 80 82 81
19 22 22 20 20 19 18 18 19 20 22 27 34 43 50 54 56 56 57 59 60 61 62 64 66 67 70 73 75 77 78 78 81 80 79 79 79 79 79 82 83 82 81 77 78 79 85 92 90 93 95 94 96 93 95 99 90 79 76 75 72 68 68 71 72 72 72 73 75 71 63 55 48 45 37 31 28 21 27 63 98 106 103 102 97 98 101 102 103 99 89 88 91 87 85 87 87
20 22 22 20 20 19 18 18 19 19 19 22 27 35 42 44 47 49 49 52 55 55 57 62 65 66 65 65 67 71 73 75 78 77 77 77 76 76 76 80 82 80 82 86 86 86 94 95 89 94 97 97 98 92 95 98 84 83 90 82 73 71 71 74 74 71 72 76 78 73 63 56 48 41 36 30 26 25 19 28 64 97 103 96 82 84 99 102 101 103 99 96 101 102 93 90 92
22 23 22 20 20 19 18 18 18 19 20 21 25 31 35 35 39 42 42 45 48 47 50 58 64 65 60 57 59 63 68 70 73 72 72 72 72 72 72 74 77 78 83 87 84 85 94 89 78 91 101 98 98 95 97 101 95 98 97 81 74 74 74 76 75 70 73 79 80 75 64 55 48 39 33 30 25 23 23 19 31 60 82 80 57 58 90 104 100 101 103 101 104 109 98 90 94
24 24 23 21 20 19 18 19 18 19 20 22 27 32 32 29 30 32 32 35 41 41 44 50 55 60 58 54 56 58 62 65 67 68 68 69 69 68 69 70 72 74 77 79 79 83 91 84 72 85 97 93 96 100 101 105 105 103 92 81 78 76 77 77 74 72 75 82 81 75 66 56 47 39 32 29 27 23 23 24 21 30 46 50 45 56 87 104 104 100 101 102 100 104 104 98 99
24 24 23 21 20 20 19 19 19 20 21 23 29 33 33 29 27 28 27 29 33 34 37 41 46 54 57 53 52 54 58 61 64 65 64 65 65 65 67 68 69 70 70 71 73 81 89 84 71 82 98 95 96 103 102 102 104 103 94 86 80 78 80 80 77 75 76 81 83 76 65 55 45 38 34 29 27 26 24 25 23 23 26 32 54 80 98 104 103 100 99 102 98 100 107 105 104
23 23 23 22 21 21 21 21 20 21 21 23 28 33 34 32 29 28 26 26 26 26 28 34 39 46 51 50 48 50 55 59 61 61 62 63 64 64 64 65 66 66 67 67 69 77 85 82 72 84 103 97 96 105 103 99 99 102 97 87 81 80 84 87 84 79 78 81 82 76 64 54 45 38 35 31 28 28 26 25 23 24 24 39 77 99 102 103 99 99 100 100 97 94 103 107 106
22 23 24 23 23 23 24 24 23 23 22 24 26 29 33 31 28 26 24 24 25 23 24 30 32 34 41 44 45 48 53 57 57 59 61 63 64 64 64 63 64 63 63 65 70 76 79 76 69 80 102 102 99 104 104 101 99 103 97 86 84 85 90 96 92 86 83 83 81 75 64 53 47 41 38 33 30 29 26 25 24 24 23 42 87 104 98 101 99 98 100 101 97 88 92 104 108
21 22 23 24 23 23 24 24 24 25 24 25 25 27 29 27 25 23 22 23 24 24 24 29 29 27 32 38 41 44 48 52 55 59 63 65 67 66 66 65 64 65 64 64 67 70 70 69 66 75 98 104 101 103 103 102 103 104 92 85 91 93 100 101 95 93 87 84 83 74 64 56 50 45 40 33 31 30 27 26 24 25 23 28 67 98 100 99 99 100 98 100 101 93 89 93 104
20 21 22 23 23 23 23 23 24 24 24 25 25 27 28 26 24 22 21 21 22 23 24 27 29 27 28 33 35 36 39 45 52 59 63 65 67 66 67 67 66 66 66 64 64 64 68 74 74 80 94 98 99 103 102 101 103 98 85 86 97 100 105 102 96 96 88 85 85 75 67 60 53 48 42 35 32 31 29 28 25 24 25 20 35 72 97 101 100 102 100 98 100 99 96 90 97
22 22 22 22 22 23 22 22 22 22 23 23 25 27 28 28 25 22 22 21 21 21 21 24 29 29 29 30 30 31 34 39 46 51 54 59 63 65 67 68 68 67 66 64 63 63 71 85 87 84 86 89 98 104 102 103 100 90 84 91 100 101 103 101 99 97 89 88 86 78 71 63 57 52 44 37 33 32 30 29 28 24 25 24 22 39 75 99 101 101 102 100 98 99 101 95 94
25 24 23 22 22 22 22 22 22 21 22 22 23 24 26 26 25 24 23 21 21 20 19 22 28 30 28 26 27 30 34 38 41 41 44 51 56 61 66 68 69 70 68 66 65 64 72 87 89 84 84 88 100 106 102 103 100 93 95 99 100 101 101 101 101 97 92 93 89 81 74 67 62 55 46 40 35 33 30 27 27 26 24 24 22 22 45 86 105 102 101 102 100 98 101 100 97
27 25 24 23 22 22 22 21 20 21 21 21 22 22 23 23 24 24 22 22 22 20 20 23 27 28 26 25 26 29 34 38 39 39 44 48 51 55 59 63 69 74 76 75 75 77 85 94 95 94 97 98 103 105 101 102 104 103 101 101 100 100 101 102 102 100 98 99 95 88 79 72 67 58 49 42 35 33 32 29 25 25 25 23 24 21 25 60 96 105 101 101 102 100 100 101 99
32 28 25 24 22 23 23 22 21 21 21 21 22 22 22 22 22 22 21 21 22 20 23 26 28 28 27 25 24 26 31 35 37 39 43 46 49 53 57 67 78 83 85 86 86 90 100 106 102 98 100 104 103 103 104 101 104 107 100 99 102 99 99 101 102 102 102 102 99 92 86 78 70 60 50 42 38 34 29 25 25 25 25 21 20 20 19 34 67 95 103 99 99 100 99 100 101
37 32 30 27 26 27 24 22 21 21 22 22 22 22 21 22 22 21 19 19 20 21 25 28 28 29 29 27 25 25 26 28 29 31 37 46 54 59 68 81 90 93 93 92 91 89 96 102 99 92 91 97 96 97 104 101 102 107 99 100 103 97 96 99 101 102 102 103 100 95 91 82 72 63 52 43 34 31 36 46 59 65 60 51 39 30 22 19 33 66 95 100 96 99 99 99 102
37 35 35 34 34 34 29 25 23 23 23 24 24 23 22 22 22 20 19 18 18 20 24 26 27 29 30 28 26 25 23 23 23 28 43 60 69 75 86 97 100 100 99 96 93 86 85 85 83 79 75 80 81 83 95 96 101 107 97 99 104 98 97 98 101 103 101 103 102 95 90 81 73 63 51 46 41 48 73 89 96 99 97 93 85 71 53 31 19 31 67 96 99 98 99 100 102
40 40 42 43 42 40 36 31 27 26 27 26 24 22 22 22 21 20 19 18 18 19 21 24 26 28 29 28 27 26 25 24 24 32 53 72 82 88 97 105 104 104 104 103 98 90 84 75 69 65 62 65 65 71 84 85 94 107 96 94 104 102 100 100 102 103 101 104 102 92 87 77 68 65 64 71 78 86 99 101 97 97 96 100 102 100 91 66 37 19 33 72 97 101 100 100 101
51 49 49 50 48 46 43 37 32 30 29 29 26 23 22 21 22 22 21 19 18 18 19 21 25 27 28 28 29 32 33 30 27 35 57 77 85 85 90 99 104 105 104 101 95 90 85 75 69 63 58 58 59 69 86 84 89 104 93 87 103 106 100 99 102 103 101 102 98 89 84 72 66 83 95 98 101 100 101 99 96 94 93 95 96 99 102 89 66 36 19 36 66 89 102 101 100
63 60 60 59 54 50 46 40 36 34 35 36 32 28 26 25 25 24 22 21 18 18 19 21 25 26 28 29 31 38 43 40 35 40 58 74 75 70 72 81 90 92 89 85 85 85 82 76 71 65 61 60 59 66 76 74 73 83 85 89 103 104 99 100 101 102 101 100 95 91 84 69 67 83 86 86 94 96 100 101 96 95 98 97 93 95 100 93 82 62 31 18 33 70 101 103 99
64 74 80 74 65 57 48 42 40 39 41 42 38 33 31 29 28 25 22 21 19 19 20 22 24 26 27 29 31 38 44 45 43 43 51 58 57 56 59 63 67 69 70 72 75 74 72 69 65 62 61 58 54 53 54 54 57 64 80 98 105 103 101 101 100 101 100 98 97 97 89 72 67 66 59 66 81 87 97 102 94 96 102 102 97 97 101 97 91 80 49 21 25 64 101 104 98
57 82 94 90 82 71 57 48 44 42 43 43 41 39 35 32 29 27 25 23 22 22 23 23 24 26 27 28 31 35 37 39 40 41 41 43 45 48 51 54 55 56 61 65 65 62 56 53 52 53 53 49 45 45 43 45 49 53 71 95 103 103 103 101 101 102 100 100 103 102 92 74 68 73 71 68 67 69 82 89 89 95 98 98 100 99 99 100 98 91 68 29 21 62 99 104 100
58 77 86 95 98 86 69 57 50 46 43 41 43 45 41 35 31 28 27 26 25 26 27 26 26 28 29 30 33 34 34 36 38 38 37 38 41 43 45 46 46 48 50 52 52 50 46 44 44 44 43 42 41 40 38 38 40 42 56 82 98 101 101 101 102 104 103 102 106 104 93 79 73 78 76 62 51 49 51 52 62 77 84 84 94 102 98 100 100 95 84 43 26 70 101 101 101
65 66 69 87 102 94 72 55 50 48 46 43 45 49 48 42 34 29 28 28 29 30 29 29 30 31 32 34 37 37 37 37 37 36 35 37 38 38 40 41 41 43 43 45 45 43 42 41 40 44 50 56 55 49 46 46 47 45 44 57 77 87 95 102 102 103 103 102 105 104 96 88 83 77 68 58 52 46 37 31 32 40 51 54 69 89 92 100 99 87 85 55 39 85 107 99 102
76 66 64 76 91 92 67 46 43 44 45 49 50 51 53 50 41 32 29 29 30 32 32 32 33 34 35 37 38 38 37 35 34 33 33 36 37 37 39 39 39 43 49 52 48 44 42 40 48 67 79 81 78 72 70 72 75 74 61 52 57 65 81 99 103 101 101 100 104 105 97 91 88 82 73 65 58 49 37 33 29 24 30 31 35 54 70 89 86 72 84 65 43 86 110 98 103
82 74 69 69 76 77 57 39 36 33 40 53 56 55 56 56 49 39 32 30 31 35 37 36 37 37 37 38 38 37 36 36 36 35 36 37 37 37 38 39 40 47 58 60 49 44 44 45 62 86 90 87 91 89 83 80 78 75 66 58 57 58 70 92 103 103 102 102 105 106 98 92 93 90 82 70 60 51 38 31 32 27 26 25 24 31 47 79 87 75 92 76 42 80 111 99 101
69 67 64 62 64 61 47 37 33 31 41 51 54 59 61 58 54 46 36 32 34 38 39 39 40 40 39 39 39 39 40 42 42 40 40 40 40 41 40 42 45 48 51 49 45 45 46 51 66 80 82 84 92 89 77 70 65 56 47 43 47 52 61 78 89 93 99 104 106 104 101 98 98 94 85 74 61 49 37 31 34 31 26 25 25 24 30 69 99 92 99 88 52 76 109 100 100
61 61 55 54 59 58 49 43 40 40 46 50 52 60 66 63 58 51 42 37 37 39 39 39 41 43 47 49 45 44 46 47 45 42 41 42 44 47 56 67 73 70 67 62 57 53 55 68 81 86 88 87 90 89 78 66 59 52 43 36 36 39 45 55 61 68 82 94 98 100 103 102 100 96 86 76 62 45 35 33 34 32 28 25 24 24 24 54 98 101 96 92 71 80 103 101 100
71 75 71 65 69 69 61 58 59 59 63 68 66 61 62 64 62 56 50 44 41 42 42 41 43 48 54 55 48 47 48 46 45 45 46 47 47 52 74 97 99 94 94 93 84 73 75 90 97 96 95 91 91 92 84 72 61 54 48 41 38 36 37 42 46 54 71 86 94 99 102 99 99 99 88 75 61 43 34 35 36 33 29 27 24 24 27 49 93 107 91 86 84 89 101 101 100
74 80 77 66 67 73 73 73 74 73 75 80 72 57 56 64 67 62 57 51 45 44 44 44 48 55 64 62 49 44 49 49 51 54 54 55 54 54 69 92 101 101 103 103 98 92 94 102 100 96 93 89 90 87 82 78 68 61 57 47 39 38 39 44 51 64 83 98 103 103 101 98 99 98 86 74 59 42 37 37 37 33 28 33 31 22 32 61 96 108 91 86 95 98 100 100 99
81 80 73 67 75 85 86 83 79 76 77 75 65 54 56 67 74 70 61 55 50 46 46 49 51 64 86 86 61 45 48 53 55 59 60 59 59 55 56 68 80 89 96 98 98 99 102 103 98 94 88 81 80 81 81 80 71 65 64 52 41 41 44 50 61 75 94 108 109 103 100 99 102 98 83 74 59 44 42 40 38 33 28 43 39 20 42 81 99 103 94 92 101 101 100 102 100
78 77 79 86 96 97 90 83 77 73 74 69 60 54 57 65 74 77 68 59 55 51 49 50 53 73 104 109 79 53 49 54 56 57 59 59 59 59 58 59 60 66 77 84 89 94 97 97 96 92 85 78 78 79 78 77 72 70 68 56 47 47 49 59 74 84 94 104 106 103 101 100 104 97 82 72 59 47 46 43 40 32 32 55 45 19 55 99 100 100 102 99 102 100 99 102 101
58 70 90 103 105 97 88 82 76 72 70 65 58 55 57 59 64 74 76 66 60 56 52 50 53 72 99 106 88 65 53 56 60 60 64 67 67 68 69 70 71 72 75 77 83 92 94 95 95 87 80 76 75 73 72 73 73 70 68 61 54 50 54 69 86 94 98 103 103 101 100 102 102 93 79 69 58 51 48 44 41 31 39 68 50 21 63 105 99 99 105 102 102 100 99 101 100
50 62 80 90 92 88 84 82 79 80 80 74 67 62 61 61 64 76 84 75 65 59 54 51 53 63 80 87 82 72 65 66 69 72 78 80 81 85 87 90 92 89 85 86 91 97 96 92 85 74 68 64 61 62 67 74 76 71 67 65 59 52 54 72 93 99 100 102 103 100 99 101 99 88 77 68 59 55 50 45 41 33 49 76 53 32 73 104 99 100 103 102 102 100 100 100 99
56 63 72 80 84 81 80 80 79 81 81 74 65 61 67 74 78 86 93 88 79 68 60 59 60 64 72 80 84 81 80 83 83 82 87 91 95 100 101 103 105 101 100 101 98 91 85 78 70 66 65 62 63 68 72 76 80 77 71 66 63 57 55 69 91 101 101 101 102 101 100 100 95 85 76 67 62 59 51 47 40 34 62 83 59 58 93 103 99 102 102 102 101 99 100 100 100
54 63 74 87 97 98 98 97 91 88 84 75 65 63 74 85 87 88 94 97 89 76 68 68 71 72 74 86 100 98 87 87 86 81 85 94 100 102 103 105 107 107 105 97 82 73 69 67 67 75 80 76 78 83 80 78 82 83 79 71 64 61 60 69 89 102 103 102 101 102 104 103 94 85 79 70 66 61 52 50 39 36 75 95 70 77 104 102 98 102 100 104 104 100 100 99 100
Wind_Speed
74 73 72 71 72 72 72 71 71 70 69 67 66 66 65 67 69 69 71 74 72 64 60 58 58 53 52 61 65 62 60 57 55 56 55 53 51 50 51 50 49 49 48 47 46 46 46 45 44 44 45 44 43 42 41 38 38 40 42 44 45 46 46 46 47 48 48 48 46 46 47 44 40 41 43 44 45 41 40 43 42 39 38 37 37 37 37 37 35 33 31 30 29 28 27 26 25
74 73 71 70 70 70 69 69 69 68 67 66 64 65 66 70 73 72 72 73 69 63 59 57 56 53 58 64 62 60 60 58 57 56 54 53 51 50 48 46 46 46 45 44 44 45 44 43 43 43 44 43 41 41 40 39 40 42 44 45 46 46 46 46 47 47 47 46 45 47 46 44 43 44 44 43 42 38 39 40 37 34 33 33 33 33 34 33 32 31 30 29 28 27 27 26 25
75 73 72 71 70 69 68 68 67 66 65 63 61 65 70 74 75 72 72 73 69 63 61 59 56 58 65 65 60 59 58 58 58 56 55 53 50 48 45 43 44 44 43 43 44 44 44 42 42 42 43 42 40 40 39 40 42 45 46 46 46 47 46 46 47 46 46 46 46 47 45 45 45 46 45 42 40 37 38 36 32 30 29 30 29 29 29 29 29 28 28 28 27 27 26 26 25
79 76 74 73 72 71 70 67 67 66 65 65 65 70 74 75 74 72 72 73 69 64 62 59 58 61 66 63 59 59 58 59 57 56 55 53 50 46 44 43 43 43 44 44 44 44 42 41 42 43 43 41 41 40 41 43 45 46 46 46 47 46 45 46 46 46 46 46 47 46 45 45 45 46 44 41 39 37 37 32 29 29 27 27 26 25 24 24 26 27 27 27 26 26 25 25 25
85 82 79 76 74 72 70 68 67 67 67 69 71 75 76 75 74 72 72 72 69 63 59 59 62 63 62 60 59 59 60 59 56 55 53 51 49 46 45 45 45 45 45 44 43 42 41 41 42 42 41 41 41 42 43 45 46 46 46 46 46 45 45 46 45 45 46 46 46 45 44 43 44 45 43 41 39 38 37 30 29 29 27 26 24 21 21 22 24 25 26 27 26 25 24 24 25
89 87 85 83 79 75 72 69 68 67 69 71 72 75 76 73 72 70 69 68 65 60 57 60 66 63 59 58 59 60 59 58 55 53 51 50 49 47 46 46 45 44 43 42 41 41 41 41 41 41 41 42 43 44 45 45 45 46 46 47 45 45 45 44 44 45 46 46 45 44 42 42 44 45 44 41 38 38 36 30 29 29 26 24 21 19 19 21 22 24 26 26 26 25 24 23 23
91 90 89 87 84 81 77 74 72 71 72 72 73 74 73 71 69 68 68 66 62 60 61 64 66 63 59 58 59 60 58 57 54 51 50 49 48 47 46 45 44 42 41 40 40 40 40 41 42 43 45 45 45 44 44 45 45 46 47 46 45 45 44 43 44 45 46 45 43 42 41 43 44 45 44 39 35 37 34 29 30 30 26 23 19 18 18 20 22 24 25 26 26 25 23 23 22
90 90 90 89 87 85 82 79 77 76 77 77 76 75 73 72 71 70 69 67 63 62 65 67 66 63 61 59 59 59 57 55 52 50 49 48 48 47 45 44 43 42 40 39 40 41 41 43 45 46 45 45 44 44 44 45 46 46 46 45 44 43 42 43 45 45 44 43 41 40 40 42 43 44 41 35 33 34 31 29 31 30 27 23 19 17 18 20 21 23 25 26 26 25 23 22 22
86 86 87 87 87 86 83 81 80 80 81 82 81 79 77 75 74 72 70 66 64 66 69 68 64 63 63 60 58 57 54 51 49 49 48 48 48 46 45 43 43 42 41 41 41 42 42 43 44 44 44 44 44 46 46 46 46 46 46 44 42 41 42 45 45 44 42 41 40 38 39 42 43 42 37 33 34 32 30 30 30 29 27 24 20 17 18 20 21 23 24 25 26 25 23 22 21
80 81 82 83 83 81 80 80 81 83 84 84 84 82 79 77 76 73 70 67 68 70 70 66 64 63 62 58 54 51 49 48 47 48 48 48 47 45 43 43 42 42 41 41 41 41 42 43 44 45 45 46 46 46 45 45 45 46 45 42 40 42 44 44 44 43 40 39 38 37 40 42 42 39 35 34 35 32 31 31 29 27 26 24 21 18 19 20 21 22 24 26 27 25 24 22 21
74 75 76 77 77 76 77 78 80 81 82 83 83 82 80 78 76 73 70 69 72 72 68 64 62 61 59 54 50 48 47 47 48 48 48 48 46 45 43 43 42 41 41 40 40 41 43 45 46 46 47 46 46 44 44 45 46 45 42 40 41 44 44 43 42 39 37 38 37 38 41 41 40 38 35 35 35 34 32 32 29 26 24 24 21 19 19 20 20 21 24 26 26 25 23 21 19
69 70 71 71 71 72 73 74 75 75 76 78 79 79 79 77 74 70 67 68 72 70 63 60 58 58 56 51 49 48 47 47 48 49 48 47 46 45 43 42 41 40 41 40 41 42 44 45 45 46 46 45 44 45 45 45 45 43 41 41 42 44 43 42 40 36 36 38 38 40 41 41 40 38 36 36 35 34 32 31 30 26 24 24 22 20 20 20 19 21 23 25 25 23 21 19 16
67 66 67 66 67 68 68 69 71 71 72 74 74 74 74 73 70 66 62 65 69 65 58 56 54 54 52 49 49 48 47 46 47 46 45 45 44 44 43 41 41 40 40 40 41 43 44 45 45 45 45 45 45 46 46 45 44 42 42 42 43 44 43 41 38 36 37 38 39 41 41 40 39 38 37 36 35 33 31 31 31 29 25 24 24 22 22 21 19 20 22 23 22 20 18 16 14
65 64 64 64 64 64 65 67 68 68 69 70 70 69 69 68 66 63 60 62 65 60 54 52 50 50 49 49 49 47 45 44 45 44 44 43 43 43 42 41 40 40 40 40 42 44 45 45 45 45 45 45 45 44 44 43 42 42 42 43 43 43 43 41 38 37 39 39 40 42 41 39 38 38 37 36 34 32 31 31 32 31 27 25 24 23 23 21 18 19 21 21 19 18 16 14 13
63 62 62 62 62 63 65 67 67 67 67 67 67 67 66 65 63 59 57 60 60 55 51 49 48 49 49 49 49 47 44 43 44 44 43 42 42 42 42 41 40 40 40 41 43 44 46 45 45 44 43 43 42 42 42 41 41 42 42 43 43 43 42 40 38 39 40 41 42 42 40 38 38 39 37 36 35 34 33 32 32 32 29 26 24 24 23 21 18 18 20 19 18 16 15 15 15
63 61 61 61 63 65 67 67 67 66 64 64 64 64 63 61 60 55 53 57 56 52 50 48 47 48 50 50 48 46 44 44 44 43 42 42 43 43 42 41 40 40 41 42 43 45 46 45 43 42 41 41 41 41 41 41 42 42 42 42 42 42 42 40 40 41 42 42 43 42 41 39 39 39 37 36 36 37 35 32 31 31 29 27 25 24 23 22 19 19 19 18 17 16 16 16 16
63 61 61 63 65 68 68 67 65 64 63 63 62 62 61 59 56 51 52 57 54 50 50 49 48 48 50 51 48 46 44 43 43 42 43 43 44 43 42 41 40 41 42 43 44 45 45 43 41 41 41 40 40 40 40 41 41 41 41 41 42 42 42 41 41 42 42 43 44 43 42 40 39 39 38 38 37 38 37 33 31 31 30 28 26 24 23 22 20 20 20 18 18 17 17 17 17
64 62 63 66 68 69 67 65 64 63 62 61 61 60 59 57 53 50 52 55 53 51 51 50 49 48 50 50 47 45 43 42 42 42 43 44 44 42 41 41 40 41 43 44 44 44 44 42 42 42 41 40 40 40 40 39 39 39 40 41 43 43 42 42 43 43 44 44 44 43 42 40 40 40 39 39 39 39 38 36 34 33 31 29 27 25 24 23 21 21 20 19 18 17 17 17 17
65 64 66 70 71 69 66 64 62 61 61 60 60 59 58 56 52 51 53 54 53 52 51 51 50 49 49 48 45 43 42 42 42 42 43 44 43 41 40 40 40 41 42 43 43 43 42 42 41 41 41 40 41 41 40 40 41 41 42 43 43 43 43 44 44 44 45 45 44 44 43 42 41 41 39 40 41 40 40 37 35 34 32 30 28 26 25 24 22 22 21 20 18 18 17 17 17
67 66 70 73 71 68 66 63 62 60 60 59 59 58 57 55 51 51 53 53 53 53 53 53 51 49 48 47 45 43 42 42 42 43 43 44 42 41 40 40 40 41 41 42 43 43 42 42 41 41 42 41 42 42 41 42 43 43 43 43 42 43 44 44 45 45 46 45 44 44 44 43 42 41 40 39 40 40 40 36 34 34 32 31 29 27 25 23 22 23 22 21 19 18 18 17 17
70 70 73 75 71 69 67 64 63 61 59 59 59 58 57 55 52 51 54 54 54 55 54 52 50 48 47 46 45 44 43 42 43 43 43 44 42 40 39 40 40 41 41 43 44 44 43 43 43 43 44 44 44 43 42 43 42 42 41 41 42 43 44 46 46 45 46 45 44 45 45 44 43 41 39 39 39 39 37 34 32 33 32 30 28 27 25 23 22 23 23 22 21 19 19 17 17
72 73 76 75 72 70 68 66 64 61 60 59 59 59 58 56 54 54 55 56 57 56 54 51 49 47 47 47 46 45 44 43 43 43 44 43 41 40 40 41 41 41 43 44 45 45 45 44 43 44 44 45 44 43 42 41 40 41 41 41 42 43 45 46 46 46 46 45 45 46 45 44 43 41 39 39 40 37 34 33 32 31 30 28 26 26 25 23 22 24 25 24 21 19 19 18 17
74 76 79 76 73 71 69 67 64 62 60 60 60 60 59 58 57 56 57 58 58 57 53 51 49 48 48 47 46 45 44 43 43 44 44 42 41 41 41 42 42 42 42 43 44 45 45 44 43 43 43 43 42 41 40 40 41 41 41 40 42 44 46 46 46 46 46 45 46 45 45 45 44 42 40 39 39 37 34 34 32 29 28 27 26 26 27 26 24 26 26 25 23 19 19 19 18
75 78 80 78 75 73 71 68 65 63 61 61 61 61 61 60 59 58 58 59 59 57 54 51 50 49 49 47 46 46 45 44 44 44 44 43 42 42 42 42 42 42 42 44 45 45 45 44 43 42 40 39 39 38 39 40 41 40 39 40 43 45 46 46 47 47 46 45 45 45 45 45 45 44 42 41 41 38 36 36 34 31 29 28 29 29 30 29 27 26 27 27 25 22 20 20 19
73 78 81 79 77 75 73 69 66 64 63 62 62 63 63 62 61 60 60 60 59 57 55 53 52 51 50 49 48 48 47 45 45 45 45 44 43 43 42 42 42 42 44 45 45 45 45 43 42 41 39 38 39 38 38 39 39 38 39 42 44 46 46 46 47 47 46 45 45 45 45 45 45 46 46 45 43 40 38 38 38 37 35 34 34 33 32 30 29 27 26 27 27 25 21 21 21
69 74 78 78 78 76 74 71 69 66 64 63 64 65 65 64 62 62 61 60 59 57 55 55 55 54 52 51 50 49 47 46 46 47 46 45 44 43 43 42 43 43 44 44 44 44 43 41 41 40 39 39 39 38 38 38 37 38 41 43 44 45 46 46 47 47 46 45 45 45 45 45 46 47 48 47 45 41 38 38 39 40 40 39 36 34 32 30 29 27 27 27 27 26 23 22 22
65 69 74 75 75 75 74 72 70 68 66 65 66 67 67 65 64 64 63 61 60 58 57 57 56 56 55 53 51 50 48 47 47 48 47 47 46 45 44 44 44 44 44 45 45 44 43 42 42 40 39 39 38 38 38 38 38 40 42 43 44 46 46 46 47 47 46 45 45 45 45 46 47 48 48 47 45 40 37 37 38 38 38 38 36 34 33 31 30 29 28 28 28 28 27 25 24
63 65 68 69 70 71 70 70 70 68 67 66 67 69 70 68 66 66 64 62 61 60 59 58 57 57 57 55 52 51 50 49 49 49 49 49 48 47 46 46 45 45 46 47 47 46 44 44 44 42 41 40 39 39 38 39 39 41 42 44 45 45 45 46 48 48 46 45 45 45 45 46 48 49 48 46 43 40 37 35 36 37 36 36 35 34 33 32 30 29 30 30 30 30 30 26 24
62 63 64 64 64 65 65 66 67 67 67 67 69 72 73 72 69 67 65 64 63 62 61 59 58 58 59 57 54 53 52 50 50 51 51 51 50 50 49 48 47 47 48 49 48 47 46 45 46 45 43 42 41 41 40 41 41 42 44 45 45 44 45 47 48 47 46 45 44 44 45 47 48 48 48 46 42 40 38 36 35 35 35 34 34 33 32 31 29 28 31 32 31 29 28 25 23
61 61 61 61 60 59 59 61 61 62 64 65 67 72 75 74 72 68 67 66 65 64 62 61 60 60 60 58 56 54 53 52 52 52 53 52 52 52 51 50 50 49 50 50 50 49 47 47 47 46 45 44 42 42 44 44 44 46 46 45 43 44 46 48 48 47 46 44 43 44 45 47 47 47 47 45 43 40 38 37 36 34 33 32 32 31 30 30 29 29 31 33 31 28 27 24 23
61 60 59 59 57 56 56 56 56 57 59 60 65 71 75 75 73 70 68 67 67 66 64 63 63 62 61 60 58 56 55 55 54 54 54 53 53 53 53 52 52 52 52 51 50 49 48 48 49 48 46 44 43 44 45 45 46 47 46 45 44 46 48 48 47 47 45 44 43 43 45 46 46 46 46 44 43 41 39 37 36 34 33 32 31 31 30 31 31 31 32 33 31 28 27 26 25
61 60 60 60 58 57 57 55 54 55 55 56 61 67 71 72 71 70 68 68 68 67 66 65 65 63 62 61 60 58 57 57 56 55 55 54 54 54 54 54 53 53 53 52 51 50 50 50 51 50 47 45 45 45 46 46 46 46 45 45 45 47 48 47 46 46 45 43 42 43 44 45 45 46 45 44 43 41 40 38 36 35 33 33 33 34 33 32 32 33 34 34 32 30 29 28 28
60 61 61 62 60 60 59 56 55 55 54 55 56 60 64 66 67 66 65 66 67 67 66 66 66 65 63 63 62 60 59 58 57 57 56 56 56 56 56 55 55 54 54 54 53 52 51 50 49 49 48 46 46 46 46 47 46 45 45 44 45 47 47 46 46 46 44 42 42 43 43 43 45 45 45 44 43 42 41 40 39 37 35 33 33 35 36 34 32 33 35 36 34 32 31 30 30
58 60 61 62 62 62 60 58 57 56 54 54 54 56 59 62 62 61 60 61 62 63 63 65 67 66 64 64 63 62 60 59 59 58 58 57 58 57 57 56 56 56 56 55 54 52 51 49 48 48 49 48 46 45 45 45 44 44 43 43 45 47 47 47 46 46 44 42 41 42 42 43 45 45 46 45 44 43 42 41 41 39 37 35 33 34 36 36 34 33 34 36 35 34 34 33 31
57 59 60 61 62 62 61 61 60 57 55 54 54 56 58 59 60 58 55 54 56 57 58 62 65 65 64 64 63 62 61 60 60 59 58 58 58 57 57 57 57 57 56 56 55 53 51 51 51 51 51 49 46 45 45 44 43 43 42 43 45 47 47 47 47 46 44 41 41 42 41 43 44 45 46 45 45 44 43 42 41 40 39 36 35 34 35 36 35 32 33 34 35 35 36 35 34
57 58 58 58 59 60 61 62 60 58 57 55 55 57 58 59 59 56 52 49 50 51 51 57 61 61 61 61 61 61 61 60 60 59 58 58 58 58 57 57 57 57 56 56 54 52 51 51 51 50 49 48 47 47 46 45 44 42 42 43 44 45 46 46 46 44 43 42 41 41 41 42 44 45 46 46 45 44 44 43 42 41 40 37 35 34 35 35 34 33 34 34 32 33 35 36 35
56 55 55 55 56 57 59 60 58 58 57 56 56 58 59 60 59 56 52 47 46 46 47 53 55 55 58 58 58 59 59 60 59 59 59 58 58 57 57 56 56 56 56 55 54 53 52 51 50 49 48 48 47 48 48 46 45 44 43 43 43 43 45 45 44 42 42 42 42 41 41 42 43 45 46 46 45 44 43 43 41 41 41 39 36 33 33 35 35 35 35 32 29 30 33 35 35
54 53 52 52 52 55 57 56 55 55 56 56 58 59 59 60 59 57 53 48 45 43 45 50 50 52 55 55 56 57 57 58 58 58 58 57 57 56 56 55 56 56 56 55 55 55 55 55 54 54 53 53 52 50 49 48 46 46 46 46 45 44 43 43 42 42 41 41 42 41 41 41 43 44 45 46 46 45 40 37 35 36 37 36 35 33 32 33 35 36 37 33 31 31 32 33 35
54 51 49 49 50 53 54 52 52 52 53 55 56 58 59 59 58 57 53 49 45 43 44 47 47 50 53 53 54 54 53 53 54 55 55 55 55 54 54 54 55 55 55 55 55 55 56 56 57 57 57 57 56 54 52 50 48 48 49 48 47 44 43 42 42 42 41 41 42 41 41 41 42 44 46 47 44 38 31 28 29 30 32 32 31 31 30 30 32 36 40 41 37 34 35 35 35
53 50 48 49 51 52 53 51 51 50 52 53 55 57 58 57 57 56 53 50 46 44 45 45 45 48 51 50 50 51 50 48 50 52 53 53 54 53 53 54 55 55 55 56 56 56 56 56 56 57 57 57 56 55 53 51 49 49 50 49 47 44 43 43 43 42 41 42 42 42 40 40 42 43 43 41 37 31 27 28 29 28 28 29 29 30 29 27 28 33 39 45 45 40 39 39 40
53 51 49 51 53 53 53 52 50 49 50 52 54 54 54 54 54 52 51 50 48 46 45 44 44 45 46 46 46 49 50 48 48 51 52 53 53 53 54 54 55 56 57 57 56 56 56 56 56 56 56 56 55 54 52 51 50 50 51 50 47 45 43 42 42 42 41 42 43 42 40 40 40 38 36 36 35 34 34 35 36 36 33 31 31 32 32 30 27 29 35 42 49 49 43 40 41
55 53 51 53 56 56 56 52 49 47 47 50 51 50 50 50 50 50 49 49 48 46 44 43 43 43 43 43 44 47 50 50 50 51 52 53 53 53 53 54 55 56 56 56 56 56 55 55 56 56 56 56 55 54 53 51 50 49 49 49 47 46 43 42 43 42 43 43 43 42 40 39 37 36 37 39 39 40 41 40 40 40 37 35 35 35 35 34 29 27 31 37 46 50 44 39 40
56 54 54 56 58 59 58 54 50 48 48 50 50 49 49 48 48 48 48 46 45 44 43 43 42 42 42 41 42 45 49 51 51 51 52 52 52 52 52 53 54 55 55 55 55 55 55 55 55 55 55 55 55 54 53 52 50 48 48 47 46 45 44 44 44 43 43 43 43 42 41 39 38 41 42 40 41 44 44 44 44 42 40 39 37 35 35 36 33 29 28 33 42 47 44 38 39
53 55 57 58 59 62 61 56 53 51 52 52 49 48 48 45 45 45 44 42 40 40 42 42 41 41 41 41 42 45 47 48 48 48 47 47 48 49 50 51 52 53 54 54 54 54 54 54 54 54 54 54 54 54 52 51 49 48 48 47 46 45 45 45 45 44 43 43 43 42 42 40 39 41 42 41 44 45 45 45 45 45 45 43 38 36 35 36 35 31 27 28 38 43 42 39 38
53 58 59 59 61 63 62 59 56 56 56 52 47 47 47 45 44 42 40 38 36 37 40 40 39 39 40 41 42 42 41 41 42 42 40 41 43 45 47 48 49 50 50 51 52 52 52 52 52 52 52 52 52 51 50 49 48 47 48 48 47 46 45 45 45 45 44 43 43 43 43 42 40 40 43 46 47 48 48 48 47 47 49 48 44 40 38 36 36 35 30 27 34 38 39 40 38
55 60 58 59 63 64 63 60 59 58 56 51 47 47 47 46 45 41 36 34 34 36 38 38 38 38 39 39 39 38 37 38 40 40 38 39 40 41 42 43 44 44 45 47 48 48 48 48 47 47 47 47 47 46 45 45 45 45 46 47 48 48 46 45 45 45 45 44 44 44 44 44 43 44 46 48 50 50 50 50 51 50 49 49 50 48 44 40 40 41 35 29 34 37 38 40 38
59 60 58 60 62 64 63 60 59 58 54 50 47 46 47 47 45 39 34 32 33 34 36 37 37 38 38 38 38 38 38 40 40 39 38 37 37 38 39 39 40 41 42 44 44 44 44 44 43 42 42 42 42 42 41 41 41 41 42 44 46 48 48 47 45 44 45 45 44 44 44 45 45 46 48 49 51 53 52 51 53 54 51 47 49 50 48 45 43 41 35 30 34 37 39 42 39
60 59 58 59 60 62 62 58 57 53 49 48 48 46 46 46 44 39 33 31 30 31 34 35 36 37 38 37 38 38 38 38 38 37 36 35 36 36 37 37 39 40 41 42 41 40 41 40 40 41 41 42 42 41 40 40 40 40 41 42 44 47 49 49 47 45 45 44 44 45 46 46 46 47 48 49 52 54 54 53 54 56 54 47 46 46 45 45 43 38 33 30 34 37 39 43 41
56 57 57 57 58 60 58 55 51 47 45 48 49 48 46 46 45 40 35 31 30 32 34 35 35 36 36 37 38 38 37 36 36 36 35 35 35 35 36 37 38 40 41 42 41 40 39 39 39 41 42 43 42 41 40 41 41 42 43 43 44 46 49 51 50 48 47 46 46 46 46 47 46 47 49 50 52 54 54 54 56 58 55 47 43 41 40 43 42 37 33 31 34 36 39 42 42
52 54 53 53 55 56 54 51 47 44 45 48 50 50 47 46 46 43 39 34 31 33 35 35 35 34 35 37 38 37 36 36 36 36 35 35 35 35 36 37 38 40 40 41 41 40 39 39 40 41 42 43 42 41 41 41 42 43 43 43 43 45 47 50 51 50 49 48 48 47 47 47 47 48 49 49 52 54 53 54 57 59 56 48 41 38 37 41 42 40 36 34 35 36 37 40 42
53 55 55 53 54 54 52 51 49 46 47 50 53 52 48 46 45 44 42 38 33 34 36 35 34 34 36 38 40 38 37 37 36 35 35 36 36 36 37 37 38 39 39 40 39 39 39 39 40 41 42 43 42 42 42 42 42 42 42 42 42 43 44 46 47 48 48 48 48 47 46 46 47 48 48 50 52 52 52 54 57 59 56 48 39 35 36 39 42 42 39 36 37 37 37 38 41
54 57 57 53 51 53 54 55 54 51 52 55 55 52 48 46 45 45 45 41 36 36 36 35 35 35 37 40 42 40 37 37 36 36 36 37 37 38 39 39 39 39 39 39 39 39 39 40 41 42 43 43 43 43 43 44 43 43 43 43 42 42 43 43 44 44 45 46 46 46 46 46 47 48 48 50 52 52 52 55 57 58 54 45 37 33 35 38 41 42 40 37 38 39 39 39 40
55 57 54 49 51 57 60 59 57 55 56 57 55 51 47 46 46 48 47 43 39 37 36 36 37 37 38 41 43 41 38 37 37 37 38 38 39 39 40 41 41 40 40 40 40 40 40 41 42 43 44 44 45 44 44 45 46 46 45 43 42 41 42 42 42 42 43 44 45 45 45 45 46 48 48 49 51 52 52 55 57 57 51 42 36 32 35 38 39 40 39 38 37 37 39 39 39
58 55 51 54 60 63 62 61 58 56 57 57 54 50 48 47 47 47 46 44 41 40 39 39 39 39 40 42 44 42 38 37 38 39 39 39 39 39 39 40 40 40 40 40 40 40 41 41 42 43 44 44 44 44 45 45 46 47 46 45 43 42 41 41 41 42 43 44 44 44 44 45 46 47 47 48 50 51 52 54 57 56 48 41 36 31 34 38 39 39 38 38 37 36 37 38 38
57 55 56 62 66 64 62 61 59 56 56 56 54 51 49 48 46 46 47 47 45 44 43 42 41 42 43 44 44 43 40 39 39 39 39 39 39 38 38 38 38 38 38 39 39 39 40 40 40 41 42 42 44 45 46 45 45 46 46 45 44 42 41 40 41 42 43 44 44 44 44 45 46 47 47 48 49 50 51 53 55 54 46 39 35 30 33 38 39 38 37 38 38 37 38 37 37
58 59 62 65 65 63 62 62 60 58 58 58 56 53 50 48 47 47 50 50 47 46 45 44 43 43 44 45 44 43 41 40 40 39 39 38 38 37 37 36 37 38 38 38 38 38 38 39 40 41 42 44 45 46 45 44 43 43 44 44 43 42 41 40 41 42 43 44 44 44 44 45 46 46 46 47 48 49 50 51 54 52 44 38 33 28 33 37 39 39 39 40 41 40 40 39 38
61 61 62 63 64 63 63 64 62 61 61 61 59 55 52 51 51 51 52 51 49 49 48 47 45 43 44 45 45 44 42 41 42 41 40 39 38 37 36 36 37 38 38 37 37 37 38 40 42 43 44 45 45 44 43 42 41 41 42 42 42 42 42 41 41 42 42 43 44 44 45 45 46 46 46 46 47 48 49 49 51 49 42 37 29 26 33 36 39 40 40 41 41 41 40 40 40
61 62 62 63 64 64 65 65 64 62 63 63 61 57 55 55 55 54 54 53 53 52 51 50 47 45 44 45 45 45 44 43 44 43 42 40 38 37 36 36 36 36 36 36 37 38 40 41 43 44 45 45 44 43 42 42 41 41 41 41 41 41 41 41 42 42 43 43 44 44 45 45 46 45 45 46 46 47 48 48 49 45 39 36 26 26 33 34 38 40 41 43 42 40 39 39 40
Wind_Direction
249 250 252 253 254 254 255 256 257 258 259 260 261 262 262 263 262 264 267 268 269 271 275 277 278 281 281 278 278 281 282 283 284 285 286 286 286 286 287 289 289 288 289 290 291 291 292 292 292 291 290 289 289 290 291 292 293 296 299 301 302 303 303 304 306 309 311 313 315 316 317 318 318 318 318 319 320 321 324 325 323 319 317 316 314 312 309 308 306 305 303 299 295 293 293 293 292
248 249 250 251 253 254 254 255 257 257 259 260 260 261 260 261 262 264 267 270 271 272 275 277 279 280 277 275 279 282 283 284 284 285 285 286 287 288 288 288 287 288 290 290 290 291 291 290 290 290 289 288 287 288 291 292 293 297 299 301 301 302 302 303 307 309 311 313 315 316 315 316 318 318 319 320 318 320 324 325 324 324 322 321 319 316 312 310 308 306 304 300 297 294 293 293 293
247 248 249 250 251 252 253 254 255 256 257 257 255 256 257 260 263 265 268 270 271 273 275 277 279 278 275 276 280 281 283 283 283 284 285 287 288 288 287 285 285 288 288 288 289 290 289 288 289 288 286 286 286 289 291 292 293 296 298 299 299 300 301 304 307 309 310 313 314 315 314 315 317 318 319 320 317 319 325 324 325 327 326 325 324 321 316 313 311 308 304 301 298 296 295 294 294
247 247 249 249 250 251 252 253 254 255 255 253 252 254 257 260 263 265 267 269 271 273 275 276 275 274 275 278 280 280 281 281 283 284 285 286 286 286 285 284 285 286 286 287 287 287 286 287 288 286 285 285 287 290 291 292 293 295 296 298 298 300 301 304 307 308 310 312 314 314 314 315 316 317 319 320 316 318 324 321 322 326 325 325 325 324 322 319 315 310 305 301 299 297 296 295 294
247 248 248 249 250 251 252 253 254 254 254 253 253 255 258 261 262 264 267 269 271 272 273 273 271 271 275 279 279 279 280 282 283 284 284 285 284 284 283 284 285 285 286 286 286 285 285 285 285 285 285 286 288 288 289 291 292 293 295 296 298 300 302 305 306 308 310 313 314 314 315 316 316 317 317 318 315 316 322 318 318 322 323 323 323 325 327 325 319 314 309 304 301 299 297 294 293
248 249 249 249 250 251 251 252 253 253 253 254 254 256 258 260 262 263 265 267 269 270 270 270 270 271 274 277 278 279 281 282 282 282 283 282 282 282 283 284 285 284 284 284 284 283 283 284 285 286 286 287 286 286 288 290 291 293 294 296 298 301 303 305 307 308 311 313 314 315 316 316 316 316 316 316 313 316 321 316 314 318 319 319 319 325 329 328 324 319 315 310 306 302 298 294 292
249 249 250 250 251 251 252 252 253 253 254 254 255 256 258 259 260 261 263 264 267 268 268 268 270 272 274 275 276 278 279 280 281 282 282 281 280 281 282 283 283 282 282 283 282 282 284 284 286 287 286 285 285 285 288 290 292 293 294 297 299 301 303 305 307 309 311 313 313 315 315 316 317 317 318 316 314 319 321 315 313 315 315 314 315 323 329 330 327 324 320 315 310 304 299 295 293
249 249 250 250 251 251 252 253 253 254 255 255 256 257 257 258 259 261 263 265 267 268 268 268 270 273 273 273 275 276 277 278 280 280 279 278 279 280 282 282 280 280 280 280 280 281 283 283 285 285 284 285 285 287 289 291 291 293 295 298 299 302 304 306 308 310 311 312 312 314 315 317 318 319 320 316 317 322 322 317 314 313 311 309 311 320 328 330 328 327 324 318 312 308 303 298 296
248 249 250 250 251 251 252 253 254 254 255 255 256 257 258 259 260 262 264 266 267 266 267 268 270 272 273 273 274 275 276 277 278 277 276 277 278 281 281 280 279 279 279 279 279 280 281 282 282 283 284 286 286 288 289 290 291 293 296 298 299 302 304 306 308 310 310 310 311 314 317 319 318 320 320 316 319 324 324 322 316 311 309 307 309 318 326 329 329 328 326 321 315 312 309 304 301
248 248 249 250 250 251 252 252 253 254 255 256 257 258 259 260 261 263 264 266 266 265 266 268 270 271 272 273 274 274 275 276 275 275 275 276 279 279 278 277 278 279 279 278 278 279 280 280 281 283 284 286 287 287 288 290 292 295 296 297 299 302 305 307 309 310 309 309 311 313 317 318 316 319 318 314 319 323 324 325 320 311 308 306 308 316 324 327 329 329 327 324 320 316 313 310 308
247 248 249 249 250 250 251 252 252 253 255 256 257 258 259 260 262 263 264 265 265 265 266 267 268 269 270 270 271 272 272 273 273 273 274 276 278 278 277 277 277 278 278 278 278 278 279 280 280 282 283 285 285 286 288 291 293 295 296 297 299 303 305 307 308 308 309 310 311 313 316 316 315 317 316 314 317 321 322 325 323 313 307 305 306 313 321 325 328 328 328 326 323 318 317 317 316
247 248 248 249 250 250 251 252 253 253 254 255 256 257 258 260 261 262 263 264 264 264 265 266 267 267 268 268 269 269 269 269 270 271 274 276 277 276 276 276 276 277 278 278 277 278 278 278 279 281 282 284 285 286 289 291 292 293 295 297 301 303 305 306 307 307 309 310 310 312 314 314 314 316 315 314 315 319 322 325 326 317 308 304 304 309 317 321 324 326 329 329 325 322 323 324 323
247 247 248 249 250 250 251 252 253 253 254 254 255 256 257 258 259 260 261 262 263 264 264 265 266 267 267 268 267 266 266 267 269 271 273 274 274 274 275 276 276 277 278 277 277 277 277 277 278 280 282 284 285 287 288 289 290 292 295 299 301 302 303 304 304 306 308 309 310 312 314 313 314 314 313 313 314 316 319 323 325 321 311 304 302 306 313 316 319 324 329 331 329 328 328 327 325
246 247 247 248 249 251 251 252 252 252 253 254 255 255 256 257 258 258 260 261 261 263 264 265 266 267 267 266 265 265 266 268 268 269 270 270 271 273 274 275 275 276 276 276 276 277 277 278 278 280 282 284 286 287 288 289 290 292 297 299 300 300 301 302 302 304 307 308 311 313 314 313 314 313 311 310 311 311 314 318 321 321 313 304 301 303 309 310 314 322 328 331 331 331 327 322 317
246 246 247 248 249 250 250 251 251 251 253 254 255 255 256 257 257 258 260 261 261 262 264 264 264 265 265 263 263 265 266 266 266 268 269 271 272 272 272 273 274 275 276 276 276 277 278 278 279 281 282 284 285 287 288 288 290 294 296 297 298 299 300 300 300 303 306 308 312 313 312 312 313 312 309 307 307 307 310 313 316 318 311 303 299 300 305 305 308 318 323 326 328 326 321 316 313
246 246 247 248 248 249 249 249 250 251 253 254 255 256 256 257 258 259 261 262 262 262 262 261 261 262 263 263 263 264 264 264 266 268 270 271 271 271 272 273 274 275 275 276 276 276 277 278 280 281 282 284 286 287 288 289 291 294 295 296 297 298 299 299 300 303 305 308 311 311 311 311 312 312 309 306 305 305 307 309 311 313 309 304 300 299 302 299 300 311 316 318 321 320 313 312 313
246 246 247 248 248 247 248 248 250 251 253 254 255 256 257 257 258 259 259 261 262 261 261 259 259 259 260 262 262 262 262 263 266 268 268 268 269 269 271 273 274 274 275 275 275 275 276 278 280 281 282 283 284 287 288 290 292 294 295 296 297 298 299 299 300 302 304 307 309 309 310 311 311 312 310 306 304 304 305 305 305 307 306 303 300 298 298 295 294 303 308 309 314 315 309 308 313
246 246 247 248 247 247 248 248 249 251 252 253 254 256 256 257 257 258 257 259 260 260 260 259 258 257 258 260 261 262 263 264 265 265 265 265 266 268 270 272 272 273 273 273 274 275 276 278 280 282 282 281 283 286 288 290 292 294 295 295 297 298 298 299 300 302 304 307 309 309 311 310 310 311 309 307 305 303 303 302 299 299 302 301 299 296 295 294 292 296 301 302 306 309 305 306 311
246 246 247 247 247 247 248 248 249 250 251 252 254 255 256 256 257 257 257 258 259 259 258 258 257 256 257 260 261 263 263 263 263 262 263 263 265 267 268 270 271 272 273 273 274 275 276 279 281 281 281 280 283 286 287 289 291 292 293 295 296 297 298 299 301 302 304 307 308 310 310 310 310 310 310 308 306 304 303 301 294 291 294 297 297 295 293 293 291 291 295 295 297 301 300 303 309
245 246 247 247 247 248 248 249 249 250 251 252 253 254 255 256 256 257 258 258 258 258 257 256 257 257 259 261 261 261 261 261 260 260 262 262 264 265 267 269 270 271 272 273 274 275 277 279 280 280 280 281 285 287 287 289 290 291 292 293 295 295 297 299 300 302 304 307 308 309 310 309 309 310 311 310 309 307 305 301 290 284 287 291 295 294 290 290 287 288 291 291 291 295 297 300 306
244 245 246 247 247 247 248 248 249 249 251 252 253 253 254 254 254 255 257 256 255 255 255 255 257 258 259 259 259 258 258 259 260 261 261 262 264 266 267 269 269 270 271 272 274 275 277 278 279 280 281 283 286 287 287 288 289 290 291 293 294 295 297 298 300 302 304 306 306 308 308 308 308 310 311 311 312 310 305 300 289 282 283 286 291 291 288 285 283 285 288 289 288 292 297 299 302
243 244 246 246 247 247 248 248 249 249 250 251 253 253 253 253 252 251 253 253 253 253 254 255 256 257 257 258 258 258 258 259 261 262 262 264 265 267 267 267 267 268 269 271 273 274 276 278 278 280 281 283 284 284 285 286 287 288 290 292 293 295 297 298 299 301 303 304 305 307 307 307 308 310 310 310 312 308 301 297 292 286 284 284 286 286 284 281 280 283 285 285 284 288 295 296 297
243 244 246 246 246 246 247 247 248 249 250 251 252 254 254 253 252 251 251 252 253 253 254 254 255 256 256 257 258 259 259 259 260 262 263 264 265 266 266 266 267 267 268 270 272 274 275 277 279 280 282 283 283 283 284 285 286 288 289 291 293 295 296 297 298 299 301 303 305 306 306 307 308 309 309 308 309 305 295 291 291 287 285 286 286 285 281 277 277 280 281 279 278 284 294 294 293
243 244 245 246 246 246 246 247 248 249 249 250 252 253 254 253 253 252 252 253 254 256 256 256 256 256 256 257 258 259 259 259 260 261 262 263 264 264 265 266 267 268 268 270 272 273 274 276 278 279 281 283 283 283 284 285 286 287 288 290 293 295 295 295 296 298 300 302 304 304 305 306 308 308 308 307 307 304 294 285 283 281 281 285 288 287 282 276 275 276 275 274 273 278 290 293 290
243 244 246 246 245 246 246 246 247 247 248 250 251 252 253 253 253 253 252 253 254 256 257 257 256 256 255 256 256 257 258 259 260 261 262 263 263 264 265 267 267 268 269 270 270 271 274 275 276 277 278 281 283 283 284 285 284 285 288 291 294 294 294 294 295 297 299 301 303 303 304 306 307 308 308 309 307 304 295 284 279 277 277 281 285 285 279 274 273 272 271 271 271 274 284 289 286
244 244 246 246 246 246 246 245 246 246 247 249 250 251 252 252 252 253 253 254 254 255 256 256 257 256 254 254 254 256 257 258 260 261 262 263 263 263 264 265 265 267 267 268 269 271 273 273 275 277 276 279 282 282 283 283 283 285 289 292 294 294 293 293 294 297 299 301 302 302 304 306 307 309 310 310 308 304 295 286 281 277 277 280 282 280 272 270 270 268 267 267 268 270 277 283 281
243 244 245 246 246 246 246 246 246 246 246 248 250 251 252 251 251 252 252 253 254 254 254 255 256 256 255 254 255 256 256 257 259 260 261 262 262 262 262 263 264 265 266 267 270 271 271 273 277 277 275 277 280 281 282 282 282 286 289 291 293 293 292 293 294 296 298 300 301 303 305 307 308 310 311 310 309 304 296 287 283 280 280 280 280 276 268 265 267 266 263 263 264 267 273 277 276
241 243 245 246 246 247 247 247 246 246 246 247 249 251 251 250 249 250 251 252 253 253 253 254 255 257 257 256 256 256 256 257 258 260 261 261 262 262 263 263 264 265 266 267 269 269 270 272 276 276 273 276 278 280 282 282 282 285 287 290 291 291 291 292 294 295 297 299 301 303 306 308 310 311 312 312 309 306 301 293 286 284 283 281 279 275 267 264 267 267 263 261 261 265 270 270 272
241 243 245 246 247 247 247 247 246 245 245 245 247 250 250 250 249 249 250 251 252 252 253 253 254 255 257 257 256 256 257 257 258 259 260 261 262 262 263 264 264 265 265 266 267 268 268 270 275 275 272 276 277 278 281 280 280 283 286 289 289 289 290 291 293 295 297 299 301 303 306 308 311 313 314 314 311 309 305 300 293 288 284 280 275 270 265 262 267 269 264 262 261 262 264 263 267
241 243 246 247 247 248 247 246 245 244 243 243 245 248 249 249 248 248 248 249 251 251 252 253 253 254 255 256 257 257 257 257 257 258 260 261 262 262 263 263 264 264 264 266 266 266 266 267 272 273 271 276 278 277 279 278 278 281 285 287 288 289 290 291 293 294 296 298 301 303 306 309 312 315 317 316 314 311 308 303 298 293 286 279 269 263 261 260 264 265 262 263 262 259 258 259 263
241 242 244 246 246 246 246 245 244 243 242 241 242 245 247 247 247 246 247 248 250 251 251 252 252 253 254 256 257 257 257 257 257 258 259 260 262 262 263 263 263 264 264 265 264 265 265 266 270 272 271 275 277 278 278 276 278 281 284 286 288 289 289 290 291 293 295 297 300 302 305 309 313 316 318 317 314 311 309 305 300 295 288 279 266 256 255 258 262 261 259 260 260 258 256 258 259
240 240 242 243 243 243 243 243 242 241 240 239 240 244 246 248 247 247 246 247 249 250 251 252 252 253 254 255 255 256 256 257 257 258 259 260 261 262 262 263 263 264 264 264 264 265 266 267 269 270 271 274 277 278 277 277 279 281 283 286 287 288 288 288 289 291 294 296 298 302 306 309 313 316 318 317 315 313 311 308 303 297 290 282 269 256 252 255 260 260 256 256 257 256 254 255 255
240 240 241 242 242 242 242 241 241 240 239 239 240 243 247 248 248 247 247 247 248 249 250 251 252 252 252 253 254 255 255 256 257 257 258 259 259 260 261 262 263 263 264 264 264 265 267 267 267 267 269 274 276 277 278 278 279 280 283 286 286 287 286 286 287 288 291 294 297 302 305 309 312 315 317 317 315 313 312 310 306 301 293 285 274 262 254 253 256 256 253 254 254 253 252 252 251
240 239 239 240 240 240 241 241 240 240 240 240 240 243 246 247 248 247 246 246 247 248 249 251 252 252 252 252 253 254 255 255 255 256 257 258 259 260 261 262 263 263 264 264 265 265 265 264 264 266 267 270 272 274 277 278 279 280 283 284 285 286 284 284 285 286 289 292 295 300 304 308 312 315 318 317 316 314 313 311 309 305 298 290 280 267 257 252 252 252 251 253 253 251 252 251 248
238 237 237 238 239 240 240 240 240 240 241 240 241 242 244 247 248 246 245 246 247 248 249 251 251 252 252 252 253 254 255 255 256 256 257 258 259 260 261 261 262 263 263 264 264 265 264 262 264 267 266 266 268 271 274 277 279 280 282 284 285 284 282 282 283 285 288 290 294 299 303 307 311 315 317 317 316 314 313 313 311 308 303 295 285 273 261 251 247 248 247 248 250 250 252 253 249
237 237 237 238 239 240 241 241 240 241 241 241 241 243 244 246 247 246 245 245 247 248 249 250 251 252 253 253 253 253 254 255 255 256 257 257 258 259 260 261 262 262 263 263 264 264 264 262 263 266 265 264 266 269 272 276 278 278 281 285 286 284 281 280 282 284 287 289 294 299 302 307 311 314 317 317 316 315 314 314 313 310 305 298 288 277 265 253 243 241 242 244 248 250 251 251 249
238 238 238 239 240 241 241 241 241 241 241 240 240 242 243 245 247 246 245 243 245 247 248 250 251 252 253 253 253 253 253 254 255 255 255 256 257 258 259 260 261 261 262 262 263 263 262 261 262 264 264 264 266 269 270 273 274 275 279 283 286 286 283 281 281 282 285 288 293 297 301 306 309 313 316 317 316 315 315 315 315 313 309 303 295 283 271 260 248 239 238 240 242 243 247 249 247
239 239 239 239 240 241 242 241 240 241 241 240 240 241 242 244 246 246 245 244 243 244 246 249 251 251 252 253 253 253 252 253 254 255 255 256 257 258 259 259 260 261 262 263 263 262 262 261 262 263 264 265 267 268 269 270 271 272 275 279 283 286 285 282 280 281 283 286 292 296 299 304 309 312 315 316 315 314 316 319 320 321 317 312 306 297 285 271 258 244 234 234 235 234 240 245 245
239 240 240 241 240 241 242 241 240 239 240 240 240 240 241 243 245 246 246 245 242 241 243 247 249 250 251 252 252 254 254 254 256 256 256 257 257 258 259 259 261 262 263 264 264 264 263 263 263 264 264 265 266 267 267 268 269 269 271 276 281 284 284 282 279 279 281 285 291 294 298 303 308 312 315 315 314 315 320 322 323 323 321 319 316 310 300 285 270 253 238 233 233 231 234 238 240
240 241 241 242 241 242 242 240 238 237 239 240 239 240 241 242 245 246 246 244 242 240 241 244 247 249 251 253 254 256 257 258 258 257 257 257 257 258 258 260 261 262 263 264 265 265 265 265 265 265 265 265 266 266 266 267 267 267 269 274 279 282 284 281 277 277 280 284 289 292 296 301 308 313 314 312 312 314 315 311 307 307 307 308 310 308 304 294 278 263 247 236 234 234 233 233 235
239 239 239 241 241 241 241 239 238 238 240 242 242 241 242 243 244 245 245 244 242 240 240 242 245 249 251 254 255 256 258 258 257 257 257 257 258 258 259 260 261 262 263 264 264 265 266 266 266 266 266 266 266 266 267 266 266 266 267 271 275 279 281 280 276 276 280 284 287 290 294 300 308 311 305 301 302 302 300 297 295 295 294 291 292 295 296 296 286 270 256 242 236 237 235 233 234
236 236 237 239 241 241 240 239 238 238 240 243 244 243 242 242 243 243 243 242 242 241 240 241 243 246 249 250 252 253 254 255 255 255 256 256 257 258 258 259 260 261 262 263 264 265 266 266 267 267 267 267 267 266 266 266 266 266 266 269 272 276 279 279 275 277 280 283 286 289 293 300 304 300 295 296 296 296 295 294 294 292 290 286 283 284 285 289 291 279 263 247 236 235 234 233 234
235 235 236 238 240 241 240 239 238 237 238 241 243 243 241 240 241 242 242 242 242 241 240 239 240 243 245 246 248 248 249 251 252 252 253 254 256 257 258 259 260 261 262 263 264 264 265 265 266 267 268 268 268 268 267 267 266 265 264 267 271 274 277 278 277 278 280 282 285 288 292 296 298 297 297 296 293 292 292 292 294 292 289 285 279 276 277 280 285 286 273 251 236 232 230 230 233
235 235 235 237 240 241 241 238 237 236 237 238 241 243 243 241 241 242 242 241 241 240 240 239 239 241 243 244 244 245 246 248 251 251 252 254 255 256 257 257 258 259 260 262 263 264 264 265 266 267 267 268 269 269 269 268 267 265 263 265 270 273 277 278 277 278 280 280 283 287 290 293 296 297 297 296 293 291 289 287 288 287 285 283 275 269 270 272 274 281 281 256 237 233 230 227 230
233 234 234 235 238 240 240 238 237 236 237 238 240 244 245 244 242 241 241 240 238 238 240 240 240 240 241 243 243 245 247 249 251 251 251 252 252 253 254 255 256 257 259 261 262 262 263 264 265 266 267 268 270 270 270 270 269 267 264 263 267 271 276 278 277 277 278 279 282 285 288 291 293 292 292 295 295 294 292 289 287 283 280 277 271 264 263 265 267 272 280 260 235 230 228 224 225
231 233 233 234 237 239 240 239 238 238 238 239 240 244 247 246 244 242 240 239 237 237 238 239 239 239 240 241 242 243 244 245 247 247 247 247 248 250 252 254 255 257 258 259 260 261 262 263 265 266 268 269 271 272 272 271 270 270 266 264 265 268 273 277 277 276 276 277 281 284 287 290 292 292 293 296 297 297 296 294 291 287 282 277 271 265 259 260 262 267 274 260 233 225 221 220 221
230 232 232 233 236 239 241 240 239 239 239 240 240 243 247 248 247 244 239 236 235 236 238 238 238 238 239 240 241 241 242 243 245 246 247 248 249 250 252 254 255 256 257 258 260 262 263 264 266 268 269 271 272 273 273 274 273 272 270 267 266 267 270 273 276 276 276 277 280 283 286 289 291 293 295 297 299 300 300 298 296 294 291 285 276 268 261 258 261 264 268 256 232 222 219 218 219
230 232 233 234 236 240 242 242 241 240 240 241 240 240 245 248 249 245 239 233 232 234 237 237 238 238 238 239 240 241 243 244 246 248 249 250 250 252 253 254 255 256 257 259 263 264 265 266 267 268 269 271 273 274 275 277 276 276 275 272 269 268 268 271 273 275 276 278 281 283 286 288 291 293 295 298 299 301 302 301 301 300 299 296 285 274 262 255 257 261 262 248 230 222 218 219 219
233 235 235 236 238 242 245 246 246 244 241 241 241 239 240 245 248 245 239 232 227 229 232 234 236 238 240 240 240 241 243 244 244 245 245 247 249 251 253 254 255 256 258 261 264 266 266 266 267 267 269 272 274 276 278 279 279 279 278 276 273 269 268 269 271 274 276 278 280 283 285 287 289 292 295 298 300 301 303 303 305 305 304 302 291 278 263 251 249 253 252 240 228 221 217 219 220
235 239 240 240 242 244 248 250 250 247 243 241 240 238 235 239 244 245 241 235 229 229 232 232 233 237 240 241 242 242 242 242 243 243 244 246 248 250 253 254 256 257 260 262 263 264 265 265 266 268 270 273 276 279 281 282 282 282 281 279 276 273 270 270 271 273 275 277 279 281 283 285 288 291 295 298 300 302 303 305 308 308 308 305 295 279 262 248 241 243 243 233 224 219 216 219 221
233 237 239 239 241 245 248 249 249 247 244 242 240 238 234 234 240 244 243 238 231 230 233 234 234 236 238 241 242 241 242 243 244 245 247 248 248 250 251 252 254 257 260 262 262 263 264 266 268 269 272 275 278 280 282 284 284 284 283 282 279 276 274 272 272 273 274 276 277 279 281 284 288 291 295 298 300 302 304 307 310 310 310 308 297 276 258 246 237 237 240 233 221 216 216 219 222
231 234 237 239 242 244 245 244 244 242 241 241 240 238 234 232 234 239 240 238 233 230 232 234 235 236 238 241 242 240 240 242 244 245 246 247 248 249 250 250 252 255 258 260 262 264 265 267 270 273 276 278 280 282 284 285 285 285 285 284 282 279 276 275 274 274 274 274 276 278 281 284 288 291 295 298 301 304 306 309 311 312 311 308 297 273 252 242 235 235 240 234 222 217 217 220 222
232 234 239 242 242 241 241 241 241 240 240 241 241 239 236 232 230 233 237 236 234 232 231 231 233 235 237 240 243 242 239 240 241 242 244 246 247 249 249 251 253 255 259 262 264 267 269 272 274 277 279 280 282 284 285 285 285 285 285 284 283 281 278 276 274 274 274 274 276 278 281 284 288 292 295 299 302 305 308 311 312 313 312 308 296 270 245 236 231 232 236 231 222 219 219 221 222
231 234 237 238 238 238 239 241 241 241 241 242 243 242 238 234 231 232 235 236 234 233 231 229 229 230 232 237 242 244 242 241 242 243 244 246 247 249 250 252 255 258 261 264 266 268 270 273 275 277 279 280 282 282 282 283 284 284 284 284 283 282 279 276 274 273 274 274 276 278 280 284 287 291 295 299 302 305 309 312 314 314 313 307 297 269 239 230 228 229 228 225 222 219 218 221 224
232 232 232 233 236 238 241 243 243 244 245 246 245 243 240 237 233 232 234 235 233 232 231 228 227 227 230 235 241 244 245 245 245 245 245 245 247 249 252 255 258 260 263 265 267 269 271 273 274 277 279 280 280 279 279 280 281 281 282 283 282 280 278 276 274 274 274 274 275 277 280 283 287 291 295 299 302 305 309 313 315 316 313 307 297 267 234 227 227 225 222 222 223 220 217 219 222
235 233 233 234 237 239 241 243 244 244 244 245 245 243 241 239 235 231 232 234 234 234 233 231 229 228 232 236 240 244 245 245 245 244 243 244 246 249 252 255 258 260 263 266 268 270 272 273 275 278 280 280 280 279 278 278 278 279 280 281 281 279 278 276 275 275 274 275 276 277 280 283 286 290 294 299 302 305 310 314 317 317 312 307 297 260 230 226 226 221 219 221 224 222 217 216 220
235 236 237 239 241 243 244 245 245 244 244 244 244 242 239 237 234 230 230 232 233 234 235 234 232 230 232 236 239 241 241 241 241 240 240 242 244 246 250 253 256 259 261 264 268 271 274 276 278 280 281 281 281 279 278 277 277 278 278 279 280 280 278 275 274 275 275 275 276 278 281 283 286 290 294 299 302 306 310 314 318 317 311 309 295 248 227 227 224 219 218 221 225 226 222 217 220
237 237 238 239 241 243 244 245 247 247 247 248 247 242 237 234 232 230 229 230 230 231 233 234 233 231 232 235 237 237 237 237 238 239 239 240 241 244 248 251 254 256 259 263 268 273 276 277 279 280 281 281 280 278 278 279 279 278 278 278 279 279 278 276 275 274 275 276 277 279 281 283 286 290 294 299 301 305 310 314 318 316 309 309 293 237 224 226 223 219 219 221 225 227 224 219 220